User: anonymous   Login
Location: *
(51.1248°S, 108.4023°W)
Time: 00:18:12
(UTC+00:00)
Language:

Okean O Rocket - Orbit

View from above orbital plane
View from above orbital plane
View from above satellite
View from above satellite

Ground track
Ground track

The orbit data is extracted from the following two-line orbital elements,

1 25861U 99039B   21262.42994236  .00000042  00000-0  13292-4 0  9991
2 25861  98.2028 279.6120 0016774 121.3768  15.0354 14.78662939195449
Epoch (UTC): 19 September 2021 10:19:07
Eccentricity: 0.0016774
inclination: 98.2028°
perigee height: 622 km
apogee height: 645 km
right ascension of ascending node: 279.6120°
argument of perigee: 121.3768°
revolutions per day: 14.78662939
mean anomaly at epoch: 15.0354°
orbit number at epoch: 19544

The dashed part of the orbit path shows where the satellite is in the earth's shadow,  

DLR